FW3958 Weather Reports


Display with metric or nautical units.
time (UTC)temp
F
wind
direction
speed
MPH
gust
MPH
rain 1hr
in
rain 24hr
in
rain mn
in
humidity
%
barometer
mb
20260903180035 56 134 2.0 7.0 0.00 1.56 1.47 100 1010.5
20260903174511 56 85 0.0 8.0 0.00 1.56 1.47 100 1010.6
20260903173010 55 85 1.0 8.0 0.04 1.56 1.47 100 1010.5
20260903171512 55 108 1.0 6.0 0.08 1.56 1.47 100 1010.4
20260903170013 53 133 3.0 8.0 0.08 1.60 1.47 100 1010.4
20260903164509 53 100 0.0 0.0 0.12 1.60 1.47 100 1010.4
20260903163010 53 90 0.0 2.0 0.09 1.56 1.43 100 1010.5
20260903161507 53 90 0.0 5.0 0.05 1.52 1.39 100 1010.6
20260903160005 53 120 2.0 4.0 0.08 1.54 1.39 100 1010.5
20260903154507 53 183 0.0 0.0 0.05 1.50 1.35 100 1010.3
20260903153002 53 114 0.0 5.0 0.05 1.49 1.34 100 1010.1
20260903043037 57 200 4.0 11.0 0.00 0.17 0.17 97 1009.2
20260903041538 57 180 6.0 12.0 0.00 0.17 0.17 97 1009.1
20260903040038 57 205 6.0 10.0 0.00 0.17 0.17 98 1009.0
20260903034540 57 188 4.0 11.0 0.00 0.17 0.17 97 1008.9
20260903033041 57 184 4.0 10.0 0.00 0.17 0.17 98 1008.8
20260903031534 57 182 2.0 7.0 0.00 0.17 0.17 97 1008.8
20260903030034 58 184 4.0 8.0 0.00 0.17 0.17 96 1008.7
20260903024535 58 174 4.0 9.0 0.00 0.17 0.17 95 1008.7
20260903023032 58 214 4.0 11.0 0.00 0.17 0.17 95 1008.7
20260903021538 59 199 4.0 9.0 0.01 0.17 0.17 95 1008.7
20260903020030 60 178 4.0 8.0 0.01 0.17 0.17 96 1008.5
20260903014540 60 201 2.0 6.0 0.01 0.17 0.17 96 1008.6
20260903013032 61 216 6.0 19.0 0.01 0.17 0.17 92 1008.6
20260903011529 62 209 5.0 11.0 0.00 0.16 0.16 88 1008.4
20260903010030 63 211 5.0 13.0 0.00 0.16 0.16 84 1008.4
20260903004534 64 220 6.0 14.0 0.00 0.16 0.16 84 1008.3
20260903003027 64 224 4.0 13.0 0.00 0.16 0.16 87 1008.2
20260903001524 63 205 7.0 18.0 0.00 0.16 0.16 88 1008.2
20260903000024 63 223 8.0 17.0 0.00 0.16 0.16 87 1008.1
20260902234524 62 172 8.0 13.0 0.00 0.16 0.16 92 1008.1
20260902233022 61 202 3.0 14.0 0.00 0.16 0.16 94 1008.0
20260902231523 62 190 8.0 17.0 0.00 0.16 0.16 89 1007.9
20260902230022 63 213 7.0 20.0 0.00 0.16 0.16 86 1007.7
20260902224521 64 183 8.0 19.0 0.00 0.16 0.16 89 1007.5
20260902223019 63 197 9.0 20.0 0.00 0.16 0.16 91 1007.4
20260902221517 62 184 10.0 18.0 0.00 0.16 0.16 91 1007.2
20260902220013 62 217 9.0 23.0 0.00 0.16 0.16 96 1007.0
20260902214511 61 211 8.0 17.0 0.02 0.16 0.16 96 1007.1
20260902213007 60 200 7.0 14.0 0.02 0.16 0.16 99 1006.9
20260902211504 59 217 10.0 19.0 0.02 0.16 0.16 100 1006.5
20260902210003 59 214 9.0 17.0 0.02 0.16 0.16 100 1006.0
20260902204503 59 177 10.0 22.0 0.00 0.14 0.14 100 1005.3
20260902203100 59 184 9.0 19.0 0.00 0.14 0.14 99 1004.8
20260902201559 59 182 10.0 22.0 0.00 0.14 0.14 97 1004.6
20260902200056 59 154 8.0 16.0 0.00 0.14 0.14 97 1004.5
20260902194555 59 74 1.0 5.0 0.00 0.14 0.14 99 1004.5
20260902193054 58 130 2.0 9.0 0.01 0.14 0.14 98 1004.7
20260902191558 59 138 2.0 7.0 0.01 0.14 0.14 99 1004.8
20260902190055 59 170 3.0 10.0 0.02 0.14 0.14 100 1004.9
20260902184611 59 109 1.0 5.0 0.03 0.14 0.14 100 1004.9
20260902183055 58 120 0.0 3.0 0.02 0.13 0.13 100 1005.0
20260902181548 58 63 1.0 5.0 0.03 0.13 0.13 100 1005.3